Weather History for KMDT - November, 2013

Change the Weather History Date:

Sunday, November 3, 2013

  Actual Average Record
Temperature  
Mean Temperature 44 °F 49 °F  
Max Temperature 53 °F 58 °F 78 °F (2003)
Min Temperature 34 °F 39 °F 23 °F (1951)
Degree Days  
Heating Degree Days 21 16  
Month to date heating degree days 35 48  
Since 1 July heating degree days 381 460  
Cooling Degree Days 0 0  
Month to date cooling degree days 0 0  
Year to date cooling degree days 1105 1002  
Moisture  
Dew Point 29 °F    
Average Humidity 54    
Maximum Humidity 71    
Minimum Humidity 36    
Precipitation  
Precipitation T in 0.10 in 1.16 in (1962)
Month to date precipitation 0.44 0.31  
Year to date precipitation 36.91 34.59  
Snow  
Snow 0.00 in - - ()
Month to date snowfall 0.0  
Since 1 July snowfall 0.0  
Since 1 September snowfall 0.0  
Snow Depth 0.00 in    
Sea Level Pressure  
Sea Level Pressure 30.17 in    
Wind  
Wind Speed 8 mph (North)    
Max Wind Speed 21 mph    
Max Gust Speed 26 mph    
Visibility 10 miles    
Events      
T = Trace of Precipitation, MM = Missing Value Source: NWS Daily Summary

Daily Weather History Graph

Daily Weather History Graph

Search for Another Location

Airport or City:

Trip Planner

Search our weather history database for the weather conditions in past years. The results will help you decide how hot, cold, wet, or windy it might be!

Date:

Astronomy

Nov. 03, 2013 Rise Set
Actual Time 6:38 AM EST 5:01 PM EST
Civil Twilight 6:10 AM EST 5:29 PM EST
Nautical Twilight 5:38 AM EST 6:02 PM EST
Astronomical Twilight 5:06 AM EST 6:33 PM EST
Moon 6:40 AM EST (11/3) 5:14 PM EST (11/3)
Length of Visible Light 11h 19m
Length of Day
10h 22m
New Moon, 0% of the Moon is Illuminated
Nov 3
New Moon
Nov 10
First Quarter
Nov 17
Full
Nov 25
Last Quarter
Dec 2
New

Hourly Weather History & Observations

Time (EST) Temp. Windchill Dew Point Humidity Pressure Visibility Wind Dir Wind Speed Gust Speed Precip Events Conditions
12:56 AM 48.9 °F - 39.0 °F 69% 29.86 in 10.0 mi NW 5.8 mph - N/A   Scattered Clouds
1:56 AM 51.1 °F - 41.0 °F 68% 29.88 in 10.0 mi WNW 8.1 mph - N/A   Overcast
1:56 AM 50.0 °F - 39.9 °F 68% 29.90 in 10.0 mi NNW 5.8 mph - 0.00 in   Light Drizzle
2:56 AM 48.0 °F - 39.9 °F 74% 29.94 in 10.0 mi North 12.7 mph - 0.00 in   Overcast
3:11 AM 48.2 °F - 39.2 °F 71% 29.94 in 10.0 mi NNW 9.2 mph - N/A   Overcast
3:56 AM 46.9 °F - 37.0 °F 68% 29.98 in 10.0 mi North 9.2 mph 18.4 mph N/A   Overcast
4:56 AM 46.0 °F 40.6 °F 35.1 °F 66% 30.01 in 10.0 mi NNW 11.5 mph - N/A   Overcast
5:56 AM 46.0 °F 40.6 °F 34.0 °F 63% 30.06 in 10.0 mi North 11.5 mph - N/A   Overcast
6:03 AM 44.6 °F 39.7 °F 33.8 °F 66% 30.05 in 10.0 mi North 9.2 mph - N/A   Overcast
6:56 AM 44.1 °F 37.7 °F 32.0 °F 63% 30.09 in 10.0 mi North 12.7 mph - N/A   Scattered Clouds
7:56 AM 45.0 °F 38.2 °F 32.0 °F 60% 30.14 in 10.0 mi North 15.0 mph 26.5 mph N/A   Scattered Clouds
8:56 AM 44.1 °F 37.4 °F 30.0 °F 58% 30.18 in 10.0 mi NNW 13.8 mph 24.2 mph N/A   Mostly Cloudy
9:56 AM 46.0 °F 39.3 °F 30.0 °F 54% 30.21 in 10.0 mi North 16.1 mph 20.7 mph N/A   Scattered Clouds
10:56 AM 48.0 °F - 28.9 °F 48% 30.22 in 10.0 mi North 12.7 mph - N/A   Partly Cloudy
11:56 AM 50.0 °F - 28.9 °F 44% 30.22 in 10.0 mi NW 10.4 mph 19.6 mph N/A   Partly Cloudy
12:56 PM 51.1 °F - 26.1 °F 38% 30.21 in 10.0 mi NW 10.4 mph 21.9 mph N/A   Partly Cloudy
1:56 PM 52.0 °F - 26.1 °F 37% 30.22 in 10.0 mi North 10.4 mph 19.6 mph N/A   Partly Cloudy
2:56 PM 51.1 °F - 26.1 °F 38% 30.23 in 10.0 mi Variable 4.6 mph - N/A   Partly Cloudy
3:56 PM 50.0 °F - 25.0 °F 38% 30.26 in 10.0 mi North 9.2 mph - N/A   Scattered Clouds
4:56 PM 46.9 °F - 24.1 °F 41% 30.28 in 10.0 mi North 4.6 mph - N/A   Partly Cloudy
5:56 PM 45.0 °F 41.8 °F 21.0 °F 39% 30.32 in 10.0 mi NNE 5.8 mph - N/A   Partly Cloudy
6:56 PM 43.0 °F 38.8 °F 19.9 °F 40% 30.35 in 10.0 mi NNE 6.9 mph - N/A   Clear
7:56 PM 41.0 °F - 19.9 °F 43% 30.39 in 10.0 mi Calm Calm - N/A   Clear
8:56 PM 37.9 °F 35.5 °F 19.9 °F 48% 30.43 in 10.0 mi North 3.5 mph - N/A   Clear
9:56 PM 37.0 °F - 19.0 °F 48% 30.47 in 10.0 mi Calm Calm - N/A   Clear
10:56 PM 35.1 °F 32.2 °F 19.0 °F 52% 30.48 in 10.0 mi NE 3.5 mph - N/A   Clear